Location: Beuerbach
(48.1459°N, 10.9174°E)
Time: 03:22:54
(UTC+00:00)

Cosmos 1850 Rocket - Pass Details

Date: 23 May 2024
Orbit: 753 x 782 km, 74.0° (Epoch: 13 June)

Event Time Altitude Azimuth Distance (km) Brightness Sun altitude
Exits shadow 01:46:17 19° 222° (SW) 1,787 5.3 -13.1°
Maximum altitude 01:50:01 58° 297° (WNW) 902 4.3 -12.8°
Drops below altitude 10° 01:55:14 10° 16° (NNE) 2,321 7.7 -12.2°
Sets 01:57:39 0° 21° (NNE) 3,247 8.8 -12.0°
